User: anonymous   Login
Location: Unspecified
(0.0000°N, 0.0000°E)
Time: 09:57:44
(UTC+00:00)
Language:

OBJECT E - Orbit

View from above orbital plane
View from above orbital plane
View from above satellite
View from above satellite

Ground track
Ground track

The orbit data is extracted from the following two-line orbital elements,

1 43666U 18083E   19112.05462360  .00001225  00000-0  64452-4 0  9990
2 43666  97.5248 136.9166 0016203  35.4645  48.7554 15.17454408 26542
Epoch (UTC): 22 April 2019 01:18:39
Eccentricity: 0.0016203
inclination: 97.5248°
perigee height: 502 km
apogee height: 525 km
right ascension of ascending node: 136.9166°
argument of perigee: 35.4645°
revolutions per day: 15.17454408
mean anomaly at epoch: 48.7554°
orbit number at epoch: 2654

The dashed part of the orbit path shows where the satellite is in the earth's shadow,  

DLR